Regional Weather Roundup
Issued by NWS Little Rock, AR

Home | Current Version | Previous Version | Graphics & Text | Print | Product List | Glossary On
Versions: 1 2 3 4 5 6 7 8 9 10 11 12 13 14 15 16 17 18 19 20 21 22 23 24 25 26 27 28 29 30 31 32 33 34 35 36 37 38 39 40 41 42 43 44 45 46 47 48 49 50
750
ASUS44 KLZK 120805
RWRLZK

WEATHER ROUNDUP FOR ARKANSAS
NATIONAL WEATHER SERVICE LITTLE ROCK AR
200 AM CST FRI FEB 12 2016

NOTE: "FAIR" INDICATES FEW OR NO CLOUDS BELOW 12,000 FEET WITH NO
SIGNIFICANT WEATHER AND/OR OBSTRUCTIONS TO VISIBILITY.

ARZ001-003-010-029-120900-
NORTHWEST ARKANSAS

CITY           SKY/WX    TMP DP  RH WIND       PRES   REMARKS
FAYETTEVILLE   PTCLDY    28  25  88 S6        30.17F WCI  22
FORT SMITH     CLEAR     38  25  59 NE5       30.21R
HARRISON       CLEAR     34  22  61 CALM      30.15F
BENTONVILLE    PTCLDY    34  21  60 CALM      30.18R
ROGERS         CLEAR     35  24  64 SW3       30.16S
SILOAM SPGS    CLEAR     36  21  55 CALM      30.17F
HIGHFILL       CLEAR     31  24  75 CALM      30.16F
$$

ARZ004-005-016-120900-
NORTH CENTRAL ARKANSAS

CITY           SKY/WX    TMP DP  RH WIND       PRES   REMARKS
BATESVILLE     PTCLDY    34  23  64 CALM      30.21F
FLIPPIN        CLEAR     34  19  55 CALM      30.16R
MTN HOME       CLEAR     32  22  66 SE3       30.16F
$$

ARZ040-041-120900-
WEST CENTRAL ARKANSAS

CITY           SKY/WX    TMP DP  RH WIND       PRES   REMARKS
MENA           CLEAR     34  32  93 CALM      30.18S
MOUNT IDA      CLEAR     34  27  75 CALM      30.17R
$$

ARZ009-017-025-026-028-120900-
NORTHEAST ARKANSAS

CITY           SKY/WX    TMP DP  RH WIND       PRES   REMARKS
CORNING        FAIR      32  25  74 E5        30.20F WCI  27
JONESBORO      CLOUDY    34  26  72 NE5       30.21R WCI  30
NEWPORT        PTCLDY    33  26  76 N5        30.22R WCI  28
WALNUT RIDGE   MOCLDY    34  23  64 NE6       30.22F WCI  29
BLYTHEVILLE    CLOUDY    37  26  64 N7        30.21F
$$

ARZ022-023-033-042-044-120900-
CENTRAL ARKANSAS

CITY           SKY/WX    TMP DP  RH WIND       PRES   REMARKS
LITTLE ROCK    PTCLDY    36  25  64 N6        30.21S
N LITTLE ROCK    N/A     35  27  72 N5        30.21S WCI  31
JACKSONVILLE   PTCLDY    33  25  70 CALM      30.20S
SEARCY         CLEAR     34  25  69 N3        30.23S
HOT SPRINGS    CLEAR     36  26  67 NW3       30.20S
RUSSELLVILLE   CLEAR     31  24  75 CALM      30.20S
CLINTON        FAIR      28  25  86 CALM      30.22S
$$

ARZ036-120900-
EAST ARKANSAS

CITY           SKY/WX    TMP DP  RH WIND       PRES   REMARKS
WEST MEMPHIS   MOCLDY    37  28  70 NE3       30.17F
$$

ARZ050-053-066-070-073-120900-
SOUTHWEST ARKANSAS

CITY           SKY/WX    TMP DP  RH WIND       PRES   REMARKS
ARKADELPHIA    FAIR      37  28  70 N6        30.20S
CAMDEN         PTCLDY    32  28  86 CALM      30.19R
TEXARKANA      CLEAR     40  30  67 NE7       30.18R
EL DORADO      PTCLDY    38  29  70 CALM      30.17F
DE QUEEN       CLEAR     35  29  78 CALM      30.18S
$$

ARZ056-057-069-120900-
SOUTHEAST ARKANSAS

CITY           SKY/WX    TMP DP  RH WIND       PRES   REMARKS
PINE BLUFF     CLEAR     34  28  79 N7        30.19S WCI  28
STUTTGART      PTCLDY    36  27  69 N7        30.20S
MONTICELLO     PTCLDY    38  28  67 CALM      30.16F

$$






USA.gov is the U.S. government's official web portal to all federal, state and local government web resources and services.